Weather History for Campo, CA

Change the Weather History Date:

Tuesday, December 11, 2012

  Actual Average Record
Temperature  
Mean Temperature 53 °F 48 °F  
Max Temperature 73 °F 63 °F 86 °F (1950)
Min Temperature 32 °F 32 °F 22 °F (1999)
Degree Days  
Heating Degree Days 12 17  
Month to date heating degree days 122 184  
Since 1 July heating degree days 551 754  
Cooling Degree Days 0 0  
Month to date cooling degree days 0 0  
Year to date cooling degree days 942 841  
Growing Degree Days 3 (Base 50)    
Moisture  
Dew Point 21 °F    
Average Humidity 35    
Maximum Humidity 56    
Minimum Humidity 13    
Precipitation  
Precipitation 0.00 in 0.07 in 1.13 in (1985)
Month to date precipitation 0.03 0.72  
Year to date precipitation 8.27 14.18  
Since 1 July precipitation 2.22 4.03  
Snow  
Snow 0.00 in - - ()
Month to date snowfall 0.0  
Year to date snowfall 0.0  
Since 1 July snowfall 0.0  
Snow Depth 0.00 in    
Sea Level Pressure  
Sea Level Pressure 29.97 in    
Wind  
Wind Speed 6 mph (ENE)    
Max Wind Speed 17 mph    
Max Gust Speed 22 mph    
T = Trace of Precipitation, MM = Missing Value Source: NWS Daily Summary

Daily Weather History Graph

Daily Weather History Graph

Search for Another Location

Airport:

Trip Planner

Search our weather history database for the weather conditions in past years. The results will help you decide how hot, cold, wet, or windy it might be!

Date:

Astronomy

Dec. 11, 2012 Rise Set
Actual Time 6:38 AM PST 4:40 PM PST
Civil Twilight 6:11 AM PST 5:07 PM PST
Nautical Twilight 5:40 AM PST 5:38 PM PST
Astronomical Twilight 5:10 AM PST 6:08 PM PST
Moon 4:41 AM PST (12/11) 3:21 PM PST (12/11)
Length of Visible Light 10h 56m
Length of Day
10h 02m
Waning Crescent, 4% of the Moon is Illuminated
Dec 11
Waning Crescent
Dec 13
New
Dec 19
First Quarter
Dec 28
Full
Jan 4
Last Quarter

Hourly Weather History & Observations

Time (PST) Temp. Windchill Dew Point Humidity Pressure Visibility Wind Dir Wind Speed Gust Speed Precip Events Conditions
12:52 AM 37.0 °F 30.4 °F 21.0 °F 52% 30.01 in - NE 9.2 mph - N/A   Unknown
1:52 AM 35.1 °F - 19.0 °F 52% 30.01 in - Calm Calm - N/A   Unknown
2:52 AM 34.0 °F - 19.0 °F 54% 30.01 in - Calm Calm - N/A   Unknown
3:52 AM 33.1 °F 30.0 °F 19.0 °F 56% 30.01 in - ENE 3.5 mph - N/A   Unknown
4:52 AM 39.9 °F 36.7 °F 19.9 °F 45% 29.99 in - NNE 4.6 mph - N/A   Unknown
5:52 AM 37.9 °F 35.5 °F 19.9 °F 48% 30.02 in - NE 3.5 mph - N/A   Unknown
6:52 AM 37.9 °F 34.4 °F 19.9 °F 48% 30.04 in - NE 4.6 mph - N/A   Unknown
7:52 AM 44.1 °F - 24.1 °F 45% 30.04 in - Calm Calm - N/A   Unknown
8:52 AM 61.0 °F - 25.0 °F 25% 30.01 in - ENE 11.5 mph - N/A   Unknown
9:52 AM 66.9 °F - 21.9 °F 18% 30.00 in - East 11.5 mph - N/A   Unknown
10:52 AM 69.1 °F - 19.9 °F 15% 29.98 in - ENE 12.7 mph - N/A   Unknown
11:52 AM 70.0 °F - 18.0 °F 14% 29.95 in - ESE 3.5 mph - N/A   Unknown
12:52 PM 72.0 °F - 18.0 °F 13% 29.91 in - SE 5.8 mph - N/A   Unknown
1:52 PM 73.0 °F - 19.0 °F 13% 29.90 in - SW 10.4 mph - N/A   Unknown
2:52 PM 70.0 °F - 23.0 °F 17% 29.90 in - WSW 13.8 mph - N/A   Unknown
3:52 PM 66.9 °F - 23.0 °F 19% 29.91 in - West 11.5 mph - N/A   Unknown
4:52 PM 60.1 °F - 24.1 °F 25% 29.93 in - WSW 10.4 mph - N/A   Unknown
5:52 PM 51.1 °F - 23.0 °F 33% 29.96 in - NE 3.5 mph - N/A   Unknown
6:52 PM 42.1 °F 39.2 °F 21.9 °F 45% 29.98 in - NE 4.6 mph - N/A   Unknown
7:52 PM 41.0 °F 37.1 °F 21.9 °F 47% 29.98 in - NE 5.8 mph - N/A   Unknown
8:52 PM 37.9 °F 32.1 °F 21.9 °F 53% 29.96 in - ENE 8.1 mph - N/A   Unknown
9:52 PM 36.0 °F 31.1 °F 21.9 °F 57% 29.95 in - ENE 5.8 mph - N/A   Unknown
10:52 PM 33.1 °F 30.0 °F 21.0 °F 61% 29.96 in - NNE 3.5 mph - N/A   Unknown
11:52 PM 33.1 °F 25.5 °F 21.0 °F 61% 29.95 in - ENE 9.2 mph - N/A   Unknown